• In Germany
  • List of Countries
  • For 7 days
  • Water Temperature
  • Satellite Maps
  • Weather Map
  • Weather Widgets
  • user-avatar
    Login

    Hourly Weather Mansa

    Today, 18 September, Tuesday

    Time Temperature Precipitation Wind Pressure Humidity
    00:00 +25°C° 0 mm 2 mps 659 mmHg 25%
    01:00 +24°C° 0 mm 2 mps 659 mmHg 26%
    02:00 +24°C° 0 mm 2 mps 659 mmHg 28%
    03:00 +22°C° 0 mm 3 mps 659 mmHg 32%
    04:00 +22°C° 0 mm 3 mps 659 mmHg 36%
    05:00 +21°C° 0 mm 3 mps 659 mmHg 40%
    06:00 +24°C° 0 mm 3 mps 659 mmHg 39%
    07:00 +25°C° 0 mm 4 mps 660 mmHg 39%
    08:00 +26°C° 0 mm 4 mps 661 mmHg 36%
    09:00 +29°C° 0 mm 4 mps 662 mmHg 30%
    10:00 +32°C° 0 mm 4 mps 662 mmHg 23%
    11:00 +34°C° 0 mm 4 mps 662 mmHg 17%
    12:00 +35°C° 0 mm 3 mps 661 mmHg 15%
    13:00 +36°C° 0 mm 3 mps 661 mmHg 13%
    14:00 +36°C° 0 mm 3 mps 661 mmHg 11%
    15:00 +36°C° 0 mm 3 mps 660 mmHg 11%
    16:00 +35°C° 0 mm 3 mps 660 mmHg 11%
    17:00 +35°C° 0 mm 3 mps 660 mmHg 11%
    18:00 +31°C° 0 mm 2 mps 660 mmHg 13%
    19:00 +29°C° 0 mm 2 mps 660 mmHg 15%
    20:00 +27°C° 0 mm 1 mps 660 mmHg 17%
    21:00 +26°C° 0 mm 1 mps 660 mmHg 18%
    22:00 +26°C° 0 mm 2 mps 660 mmHg 20%
    23:00 +25°C° 0 mm 2 mps 660 mmHg 21%

    Tomorrow, 19 September, Wednesday

    Time Temperature Precipitation Wind Pressure Humidity
    00:00 +25°C° 0 mm 3 mps 660 mmHg 23%
    01:00 +24°C° 0 mm 3 mps 660 mmHg 25%
    02:00 +24°C° 0 mm 3 mps 660 mmHg 28%
    03:00 +22°C° 0 mm 3 mps 660 mmHg 31%
    04:00 +21°C° 0 mm 3 mps 660 mmHg 34%
    05:00 +21°C° 0 mm 3 mps 660 mmHg 36%
    06:00 +22°C° 0 mm 3 mps 660 mmHg 35%
    07:00 +23°C° 0 mm 4 mps 661 mmHg 33%
    08:00 +26°C° 0 mm 4 mps 661 mmHg 31%
    09:00 +28°C° 0 mm 4 mps 662 mmHg 25%
    10:00 +30°C° 0 mm 4 mps 662 mmHg 20%
    11:00 +34°C° 0 mm 4 mps 663 mmHg 14%
    12:00 +35°C° 0 mm 4 mps 662 mmHg 12%
    13:00 +36°C° 0 mm 4 mps 661 mmHg 11%
    14:00 +37°C° 0 mm 3 mps 661 mmHg 9%
    15:00 +36°C° 0 mm 3 mps 660 mmHg 9%
    16:00 +36°C° 0 mm 3 mps 660 mmHg 9%
    17:00 +35°C° 0 mm 3 mps 659 mmHg 9%
    18:00 +32°C° 0 mm 2 mps 659 mmHg 11%
    19:00 +29°C° 0 mm 2 mps 659 mmHg 13%
    20:00 +27°C° 0 mm 2 mps 659 mmHg 15%
    21:00 +26°C° 0 mm 2 mps 660 mmHg 18%
    22:00 +26°C° 0 mm 2 mps 660 mmHg 21%
    23:00 +25°C° 0 mm 2 mps 661 mmHg 23%

    Day after tomorrow, 20 September, Thursday

    Time Temperature Precipitation Wind Pressure Humidity
    00:00 +25°C° 0 mm 3 mps 660 mmHg 26%
    01:00 +24°C° 0 mm 3 mps 660 mmHg 28%
    02:00 +24°C° 0 mm 3 mps 660 mmHg 30%
    03:00 +22°C° 0 mm 3 mps 660 mmHg 33%
    04:00 +22°C° 0 mm 3 mps 660 mmHg 36%
    05:00 +21°C° 0 mm 3 mps 660 mmHg 39%
    06:00 +22°C° 0 mm 3 mps 660 mmHg 39%
    07:00 +23°C° 0 mm 4 mps 661 mmHg 39%
    08:00 +25°C° 0 mm 4 mps 662 mmHg 39%
    09:00 +28°C° 0 mm 4 mps 662 mmHg 33%
    10:00 +30°C° 0 mm 4 mps 662 mmHg 27%
    11:00 +33°C° 0 mm 4 mps 663 mmHg 20%
    12:00 +34°C° 0 mm 3 mps 662 mmHg 18%
    13:00 +36°C° 0 mm 3 mps 661 mmHg 15%
    14:00 +37°C° 0 mm 3 mps 660 mmHg 12%
    15:00 +36°C° 0 mm 3 mps 660 mmHg 12%
    16:00 +35°C° 0 mm 3 mps 659 mmHg 12%
    17:00 +35°C° 0 mm 3 mps 659 mmHg 13%
    18:00 +31°C° 0 mm 2 mps 659 mmHg 15%
    19:00 +29°C° 0 mm 2 mps 659 mmHg 17%
    20:00 +27°C° 0 mm 1 mps 659 mmHg 19%
    21:00 +27°C° 0 mm 2 mps 660 mmHg 24%
    22:00 +26°C° 0 mm 3 mps 660 mmHg 28%
    23:00 +26°C° 0 mm 4 mps 661 mmHg 33%

    21 September, Friday

    Time Temperature Precipitation Wind Pressure Humidity
    00:00 +26°C° 0 mm 4 mps 660 mmHg 37%
    01:00 +25°C° 0 mm 4 mps 660 mmHg 41%
    02:00 +25°C° 0 mm 4 mps 659 mmHg 45%
    03:00 +24°C° 0 mm 3 mps 659 mmHg 47%
    04:00 +22°C° 0 mm 3 mps 659 mmHg 50%
    05:00 +22°C° 0 mm 3 mps 659 mmHg 52%
    06:00 +23°C° 0 mm 4 mps 660 mmHg 49%
    07:00 +25°C° 0 mm 4 mps 661 mmHg 46%
    08:00 +26°C° 0 mm 5 mps 662 mmHg 43%
    09:00 +28°C° 0 mm 5 mps 662 mmHg 37%
    10:00 +32°C° 0 mm 4 mps 662 mmHg 31%
    11:00 +34°C° 0 mm 4 mps 662 mmHg 25%
    12:00 +35°C° 0 mm 4 mps 662 mmHg 22%
    13:00 +36°C° 0 mm 3 mps 661 mmHg 19%
    14:00 +37°C° 0 mm 3 mps 660 mmHg 16%
    15:00 +36°C° 0 mm 3 mps 660 mmHg 16%
    16:00 +35°C° 0 mm 3 mps 659 mmHg 16%
    17:00 +35°C° 0 mm 3 mps 659 mmHg 17%
    18:00 +33°C° 0 mm 3 mps 659 mmHg 19%
    19:00 +31°C° 0 mm 2 mps 660 mmHg 21%
    20:00 +29°C° 0 mm 2 mps 660 mmHg 24%
    21:00 +29°C° 0 mm 3 mps 660 mmHg 28%
    22:00 +28°C° 0 mm 4 mps 661 mmHg 33%
    23:00 +28°C° 0 mm 4 mps 661 mmHg 38%

    22 September, Saturday

    Time Temperature Precipitation Wind Pressure Humidity
    00:00 +27°C° 0 mm 4 mps 660 mmHg 39%
    01:00 +26°C° 0 mm 4 mps 660 mmHg 41%
    02:00 +26°C° 0 mm 4 mps 659 mmHg 42%
    03:00 +25°C° 0 mm 4 mps 659 mmHg 41%
    04:00 +24°C° 0 mm 3 mps 659 mmHg 41%
    05:00 +24°C° 0 mm 3 mps 659 mmHg 40%
    06:00 +25°C° 0 mm 4 mps 660 mmHg 36%
    07:00 +26°C° 0 mm 4 mps 661 mmHg 33%
    08:00 +27°C° 0 mm 5 mps 662 mmHg 29%
    09:00 +29°C° 0 mm 5 mps 662 mmHg 26%
    10:00 +32°C° 0 mm 4 mps 662 mmHg 22%
    11:00 +34°C° 0 mm 4 mps 662 mmHg 19%
    12:00 +35°C° 0 mm 4 mps 661 mmHg 17%
    13:00 +36°C° 0 mm 3 mps 660 mmHg 15%
    14:00 +37°C° 0 mm 3 mps 660 mmHg 14%
    15:00 +37°C° 0 mm 3 mps 659 mmHg 14%
    16:00 +36°C° 0 mm 3 mps 659 mmHg 15%
    17:00 +36°C° 0 mm 3 mps 659 mmHg 15%
    18:00 +34°C° 0 mm 2 mps 659 mmHg 17%
    19:00 +31°C° 0 mm 2 mps 659 mmHg 19%
    20:00 +29°C° 0 mm 2 mps 660 mmHg 21%
    21:00 +29°C° 0 mm 2 mps 660 mmHg 22%
    22:00 +29°C° 0 mm 3 mps 660 mmHg 23%
    23:00 +28°C° 0 mm 3 mps 660 mmHg 24%

    23 September, Sunday

    Time Temperature Precipitation Wind Pressure Humidity
    00:00 +27°C° 0 mm 4 mps 660 mmHg 26%
    01:00 +26°C° 0 mm 4 mps 659 mmHg 28%
    02:00 +25°C° 0 mm 4 mps 659 mmHg 30%
    03:00 +25°C° 0 mm 4 mps 659 mmHg 31%
    04:00 +24°C° 0 mm 3 mps 659 mmHg 32%
    05:00 +22°C° 0 mm 3 mps 659 mmHg 34%
    06:00 +25°C° 0 mm 4 mps 660 mmHg 32%
    07:00 +26°C° 0 mm 4 mps 661 mmHg 30%
    08:00 +27°C° 0 mm 5 mps 662 mmHg 28%
    09:00 +29°C° 0 mm 5 mps 662 mmHg 24%
    10:00 +32°C° 0 mm 4 mps 662 mmHg 21%
    11:00 +34°C° 0 mm 4 mps 662 mmHg 17%
    12:00 +35°C° 0 mm 4 mps 661 mmHg 16%
    13:00 +36°C° 0 mm 3 mps 661 mmHg 14%
    14:00 +37°C° 0 mm 3 mps 660 mmHg 13%
    15:00 +37°C° 0 mm 3 mps 659 mmHg 13%
    16:00 +36°C° 0 mm 3 mps 659 mmHg 13%
    17:00 +36°C° 0 mm 3 mps 659 mmHg 14%
    18:00 +33°C° 0 mm 3 mps 659 mmHg 15%
    19:00 +30°C° 0 mm 2 mps 659 mmHg 17%
    20:00 +28°C° 0 mm 2 mps 659 mmHg 19%
    21:00 +28°C° 0 mm 2 mps 660 mmHg 20%
    22:00 +27°C° 0 mm 3 mps 660 mmHg 21%
    23:00 +27°C° 0 mm 4 mps 660 mmHg 21%
    Show more